SM7SJR-13 Weather Reports


time (UTC)temp
F
wind
direction
speed
knots
gust
knots
rain 1hr
in
rain 24hr
in
rain mn
in
humidity
%
barometer
mb
20260508001503 28 117 0.0 0.0 0.00 0.00 0.00 92 1020.4
20260508000004 28 117 0.0 0.0 0.00 0.00 0.00 92 1020.3
20260507233003 29 117 0.0 0.0 0.00 0.00 0.00 91 1020.2
20260507231504 29 117 0.0 0.0 0.00 0.00 0.00 91 1019.8
20260507224504 30 117 0.0 0.0 0.00 0.00 0.00 90 1019.8
20260507221504 30 117 0.0 0.0 0.00 0.00 0.00 89 1019.3
20260507220004 30 117 0.0 0.0 0.00 0.00 0.00 89 1019.3
20260507213004 31 117 0.0 0.0 0.00 0.00 0.00 87 1018.9
20260507211504 32 117 0.0 0.0 0.00 0.00 0.00 86 1018.9
20260507210005 33 117 0.0 0.0 0.00 0.00 0.00 85 1018.9
20260507204504 34 117 0.0 0.0 0.00 0.00 0.00 84 1018.5
20260507203004 34 117 0.0 0.0 0.00 0.00 0.00 83 1018.5
20260507201504 35 117 0.0 0.0 0.00 0.00 0.00 81 1018.2
20260507200004 36 117 0.0 0.0 0.00 0.00 0.00 79 1018.2
20260507194504 37 117 0.0 0.0 0.00 0.00 0.00 77 1018.0
20260507193003 39 117 0.0 0.0 0.00 0.00 0.00 74 1017.7
20260507191503 40 117 0.0 0.9 0.00 0.00 0.00 71 1017.7
20260507190005 42 117 0.9 2.6 0.00 0.00 0.00 66 1017.3
20260507181504 49 114 0.9 6.1 0.00 0.00 0.00 48 1016.8
20260507180004 50 111 2.6 6.1 0.00 0.00 0.00 45 1016.8
20260507173004 52 114 1.7 6.1 0.00 0.00 0.00 43 1016.4
20260507171504 52 111 0.9 7.8 0.00 0.00 0.00 42 1016.4
20260507170005 53 109 2.6 8.7 0.00 0.00 0.00 34 1016.2
20260507164504 54 121 0.9 8.7 0.00 0.00 0.00 24 1016.1
20260507163003 54 117 4.3 7.8 0.00 0.00 0.00 23 1015.9
20260507161504 54 120 2.6 8.7 0.00 0.00 0.00 28 1015.9
20260507154504 55 116 3.5 7.8 0.00 0.00 0.00 29 1015.7
20260507153004 55 109 4.3 7.8 0.00 0.00 0.00 26 1015.7
20260507151504 56 109 3.5 10.4 0.00 0.00 0.00 25 1015.4
20260507150004 56 103 2.6 7.8 0.00 0.00 0.00 28 1015.4
20260507144503 55 95 6.1 10.4 0.00 0.00 0.00 28 1015.4
20260507143004 56 111 7.0 11.3 0.00 0.00 0.00 33 1015.3
20260507141504 56 106 6.1 11.3 0.00 0.00 0.00 33 1015.2
20260507140005 56 109 3.5 10.4 0.00 0.00 0.00 38 1015.2
20260507134504 56 111 5.2 12.2 0.00 0.00 0.00 40 1015.0
20260507133003 56 89 8.7 12.2 0.00 0.00 0.00 37 1015.0
20260507131504 56 79 5.2 11.3 0.00 0.00 0.00 38 1015.0
20260507130004 55 109 6.1 10.4 0.00 0.00 0.00 37 1015.2
20260507123004 56 91 6.1 12.2 0.00 0.00 0.00 35 1014.8
20260507121503 56 95 6.1 13.0 0.00 0.00 0.00 36 1014.6
20260507120005 57 84 7.0 11.3 0.00 0.00 0.00 32 1014.6
20260507114504 57 89 6.1 10.4 0.00 0.00 0.00 27 1014.6
20260507113005 57 105 5.2 11.3 0.00 0.00 0.00 28 1014.5
20260507111506 57 127 5.2 10.4 0.00 0.00 0.00 28 1014.5
20260507110004 57 135 6.1 10.4 0.00 0.00 0.00 26 1014.5
20260507104504 58 108 6.1 10.4 0.00 0.00 0.00 29 1014.4
20260507103004 58 61 1.7 7.8 0.00 0.00 0.00 29 1014.4
20260507101504 57 99 3.5 10.4 0.00 0.00 0.00 35 1014.3
20260507100004 57 70 2.6 10.4 0.00 0.00 0.00 31 1014.3
20260507093003 56 107 1.7 8.7 0.00 0.00 0.00 39 1014.0
20260507091504 56 74 7.0 10.4 0.00 0.00 0.00 41 1014.0
20260507090004 57 69 6.1 8.7 0.00 0.00 0.00 39 1014.0
20260507084504 57 71 0.9 2.6 0.00 0.00 0.00 30 1014.0
20260507083005 56 43 3.5 8.7 0.00 0.00 0.00 28 1013.9
20260507080004 56 323 0.9 8.7 0.00 0.00 0.00 25 1013.8
20260507074504 55 325 1.7 6.1 0.00 0.00 0.00 29 1013.8
20260507073004 55 313 0.9 5.2 0.00 0.00 0.00 28 1013.8
20260507071504 54 347 1.7 5.2 0.00 0.00 0.00 34 1013.8
20260507070009 53 300 2.6 6.1 0.00 0.00 0.00 37 1013.8
20260507063004 51 304 1.7 4.3 0.00 0.00 0.00 50 1013.9
20260507061504 49 306 0.0 0.0 0.00 0.00 0.00 53 1013.8
20260507060004 48 292 0.0 0.0 0.00 0.00 0.00 64 1013.8
20260507054503 45 290 0.0 0.0 0.00 0.00 0.00 77 1013.8
20260507053004 41 290 0.0 0.0 0.00 0.00 0.00 85 1013.8
20260507051503 38 290 0.0 0.0 0.00 0.00 0.00 91 1013.8
20260507050004 36 290 0.0 2.6 0.00 0.00 0.00 95 1013.6
20260507044503 32 290 2.6 2.6 0.00 0.00 0.00 95 1013.6
20260507041503 28 286 1.7 4.3 0.00 0.00 0.00 95 1013.6
20260507040004 27 295 2.6 4.3 0.00 0.00 0.00 95 1013.3
20260507034504 26 313 1.7 2.6 0.00 0.00 0.00 94 1013.3
20260507033004 25 314 2.6 4.3 0.00 0.00 0.00 94 1013.3
20260507030004 26 323 0.9 2.6 0.00 0.00 0.00 94 1013.0
20260507024503 26 323 0.9 2.6 0.00 0.00 0.00 94 1013.0
20260507023004 26 323 0.0 0.0 0.00 0.00 0.00 94 1013.1
20260507021504 26 323 0.0 2.6 0.00 0.00 0.00 94 1013.0
20260507020003 26 326 2.6 2.6 0.00 0.00 0.00 94 1012.9
20260507014504 26 327 0.0 0.0 0.00 0.00 0.00 93 1012.9
20260507011504 26 327 0.0 0.0 0.00 0.00 0.00 93 1012.8
20260507010003 27 327 1.7 2.6 0.00 0.00 0.00 93 1012.7
20260507004504 27 355 0.0 0.0 0.00 0.00 0.00 93 1012.7
20260507003004 27 355 0.0 0.0 0.00 0.00 0.00 93 1012.8